Location: Winthrop
(48.4780°N, 120.1850°W)
Time: 22:48:19
(UTC-07:00)

S-56A Canister/Altair - Pass Details

Date: 07 June 2023
Orbit: 640 x 2489 km, 38.9° (Epoch: 29 September)

Event Time Altitude Azimuth Distance (km) Brightness Sun altitude
Rises 00:36:24 0° 269° (W) 5,809 12.1 -18.6°
Reaches altitude 10° 00:40:06 10° 265° (W) 4,949 11.6 -18.7°
Maximum altitude 00:54:03 53° 195° (SSW) 2,893 10.0 -18.8°
Drops below altitude 10° 01:07:31 10° 125° (SE) 4,782 11.2 -18.8°
Sets 01:11:02 0° 121° (ESE) 5,606 11.7 -18.7°
